Location: Biltmore Gardens
(41.6070°N, 83.4666°W)
Time: 00:17:17
(UTC+00:00)

Cosmos 2344 - Visible Passes

Search period start: 20 October 2020 00:00
Search period end: 30 October 2020 00:00
Orbit: 1247 x 2996 km, 63.3° (Epoch: 18 October)

Date Brightness Start Highest point End Pass type
(mag) Time Alt. Az. Time Alt. Az. Time Alt. Az.
20 Oct 5.1 08:13:05 22° SE 08:15:15 25° ESE 08:21:09 10° ENE visible
20 Oct 3.6 10:23:10 18° SW 10:28:54 59° NW 10:36:45 10° NNE visible
21 Oct 5.1 08:03:58 25° ESE 08:04:58 25° ESE 08:10:53 10° ENE visible
21 Oct 3.6 10:14:03 24° WSW 10:18:38 59° NW 10:26:29 10° NNE visible
22 Oct 5.1 07:54:44 25° ESE 07:54:44 25° ESE 08:00:37 10° ENE visible
22 Oct 3.6 10:04:48 32° WSW 10:08:21 59° NW 10:16:12 10° NNE visible
23 Oct 5.1 07:45:24 25° E 07:45:24 25° E 07:50:20 10° ENE visible
23 Oct 3.6 09:55:27 40° WSW 09:58:05 58° NW 10:05:56 10° NNE visible
24 Oct 5.2 07:35:59 23° E 07:35:59 23° E 07:40:04 10° ENE visible
24 Oct 3.6 09:46:02 48° W 09:47:49 58° NW 09:55:39 10° NNE visible
25 Oct 5.4 07:26:30 21° E 07:26:30 21° E 07:29:48 10° ENE visible
25 Oct 3.5 09:36:33 54° WNW 09:37:32 58° NW 09:45:23 10° NNE visible
26 Oct 5.5 07:16:57 19° ENE 07:16:57 19° ENE 07:19:32 10° ENE visible
26 Oct 3.5 09:27:00 58° WNW 09:27:16 58° NW 09:35:06 10° NNE visible
27 Oct 5.7 07:07:22 17° ENE 07:07:22 17° ENE 07:09:16 10° ENE visible
27 Oct 3.6 09:17:24 57° NW 09:17:24 57° NW 09:24:50 10° NNE visible
27 Oct 5.1 11:28:32 10° WNW 11:33:54 19° NNW 11:39:53 10° NNE visible
28 Oct 5.8 06:57:44 14° ENE 06:57:44 14° ENE 06:59:01 10° NE visible
28 Oct 3.8 09:07:45 53° NNW 09:07:45 53° NNW 09:14:33 10° NNE visible
28 Oct 5.1 11:18:17 10° WNW 11:23:38 19° NNW 11:29:38 10° NNE visible
29 Oct 5.9 06:48:04 12° ENE 06:48:04 12° ENE 06:48:45 10° NE visible
29 Oct 4.0 08:58:05 48° N 08:58:05 48° N 09:04:17 10° NNE visible
29 Oct 5.1 11:08:07 10° WNW 11:13:22 19° NNW 11:19:21 10° NNE visible
